Powrót do katalogu

THORAD AGENA D DEB

AktywnySSO
NORAD 18785·DEBRIS·🇺🇸 United States

Wystrzelony Apr 8, 1970 z Vandenberg Space Force Base

Loading…

Następne Przeloty (najbliższe 24 godziny)

TLE

ŚwieżeSource: Space-Track

Epoka: Sep 14, 2026, 13:27 UTC

1 18785U 70025PQ  26257.56059323  .00000169  00000-0  28373-3 0  9990
2 18785 100.0121 163.2321 0002894  72.3111  50.4629 13.61311577616949

Śledź THORAD AGENA D DEB w czasie rzeczywistym z AllMySat

Download on the App Store